Lexington Weather

Lexington, Massachusetts, USA

23°F
1/21/2021 9:11am 
  • Lexington Conditions: Clear
  • Temperature: 22.6°F / -5.2°CWarmer 1.2°F than last hour.
  • Dew Point: 12.0°FIncreased 0.2°Fsince last hour.
  • Relative Humidity: 63%Decreased 3.0% since last hour.
  • Wind: Wind from SSW SSW 3 mph, 10-min avg: 1 mph, gust: 7 mph
  • Barometer: 29.78 inFalling 0.02  inHg/hr Falling Slowly
  • Visibility: 10 miles
  • Snow Today: Trace
  •   

Regional Weather Roundup
for Boston / Norton, MA

        
000
ASUS41 KBOX 170504
RWRBOX

REGIONAL WEATHER ROUNDUP
NATIONAL WEATHER SERVICE BOSTON/NORTON MA
1200 AM EST SUN JAN 17 2021

NOTE:  "FAIR" INDICATES FEW OR NO CLOUDS BELOW 12,000 FEET WITH NO 
SIGNIFICANT WEATHER AND/OR OBSTRUCTIONS TO VISIBILITY.

MAZALL-170600-
EASTERN MASSACHUSETTS
  
CITY           SKY/WX    TMP DP  RH WIND       PRES   REMARKS
BOSTON         PTCLDY    37  29  72 W17G24    29.22F WCI  27          
BEVERLY        MOCLDY    37  30  75 W9        29.20S WCI  30          
LAWRENCE       NOT AVBL                                               
BEDFORD        CLEAR     36  29  75 W10       29.21F WCI  28          
BLUE HILL        N/A     33  28  81 W15G22    29.21S WCI  23          
NORWOOD        PTCLDY    37  28  70 W12       29.25R WCI  29          
MARSHFIELD     CLEAR     39  30  70 VRB7G15   29.24F                  
PLYMOUTH       CLEAR     36  28  73 W14       29.26R WCI  27          
TAUNTON        CLEAR     38  29  70 W12       29.27S WCI  30          
NEW BEDFORD    CLEAR     37  31  78 W15       29.29R WCI  28          
$$

MAZALL-170600-
CAPE COD AND THE ISLANDS
  
CITY           SKY/WX    TMP DP  RH WIND       PRES   REMARKS
FALMOUTH       PTCLDY    37  32  81 W13       29.27S WCI  29          
HYANNIS        PTCLDY    39  32  76 W8        29.26R                  
CHATHAM        PTCLDY    39  34  82 W8        29.28R                  
NANTUCKET      PTCLDY    39  33  79 W15G24    29.30R WCI  31          
MARTHAS VNYRD  MOCLDY    39  32  76 W12G20    29.31R WCI  32          
$$
 
MAZALL-170600-
CENTRAL AND WESTERN MASSACHUSETTS
  
CITY           SKY/WX    TMP DP  RH WIND       PRES   REMARKS
WORCESTER      MOCLDY    33  26  75 W18G25    29.22F WCI  22          
FITCHBURG      CLOUDY    37  29  72 W13G22    29.23F WCI  29          
ORANGE         CLOUDY    36  27  69 W10       29.25S WCI  28          
SPRINGFIELD    PTCLDY    36  25  64 W13G20    29.28F WCI  27          
WESTFIELD      PTCLDY    36  26  67 W10G22    29.30S WCI  28          
NORTH ADAMS    CLOUDY    35  26  69 W17       29.28F WCI  25          
PITTSFIELD     CLOUDY    31  25  78 W14G23    29.27S WCI  21          
$$
 
RIZALL-170600-
RHODE ISLAND
  
CITY           SKY/WX    TMP DP  RH WIND       PRES   REMARKS
PROVIDENCE     CLEAR     35  30  82 W16       29.30R WCI  25          
NEWPORT        CLEAR     36  29  75 W8G17     29.30R WCI  30          
BLOCK ISLAND   PTCLDY    37  28  70 W16G26    29.34S WCI  28          
SMITHFIELD     CLEAR     34  29  82 W10       29.28R WCI  26          
WESTERLY       CLEAR     35  29  78 W7        29.33S WCI  29          
$$
 
CTZALL-170600-
CONNECTICUT
  
CITY           SKY/WX    TMP DP  RH WIND       PRES   REMARKS
BRADLEY INTL   PTCLDY    33  26  75 W8        29.32R WCI  26          
HARTFORD       CLEAR     36  27  69 W10       29.34R WCI  28          
BRIDGEPORT     NOT AVBL                                               
DANBURY        CLEAR     34  25  69 W9        29.39S WCI  27          
GROTON         CLEAR     36  28  73 W9        29.35R WCI  29          
NEW HAVEN      CLEAR     38  29  70 W9G18     29.38R WCI  31          
CHESTER        FAIR      34  27  75 W8G15     29.34R WCI  27          
MERIDEN        CLEAR     36  24  62 W9        29.35S WCI  29          
WILLIMANTIC    CLEAR     34  28  79 W6        29.32R WCI  29          
OXFORD         CLEAR     33  27  78 W9G16     29.35S WCI  25          
$$

MEZ002-015-021-024-NHZ003-005-008-011-012-014-VTZ005-008-170600-
NORTHERN NEW ENGLAND
  
CITY           SKY/WX    TMP DP  RH WIND       PRES   REMARKS
PORTLAND ME    MOCLDY    37  35  92 SW8       29.11F WCI  31          
BANGOR ME      CLOUDY    41  40  96 SE5       29.05F FOG              
CONCORD NH     CLOUDY    36  31  82 SW6       29.16F WCI  31          
MANCHESTER NH  CLOUDY    38  29  70 SW7       29.17F                  
NASHUA NH      MOCLDY    36  32  85 VRB7      29.21S WCI  30          
PORTSMOUTH NH  MOCLDY    37  31  77 SW17G25   29.14F WCI  27          
JAFFREY NH     LGT SNOW  33  29  85 SW7       29.19F FOG     WCI  27  
KEENE NH       CLOUDY    35  28  75 W8        29.22F WCI  29          
BURLINGTON VT  LGT SNOW  33  31  92 SW5       29.18F FOG     WCI  29  
MT. WASHINGTON SNOWSHWR  16  16 100 W29         N/A  VSB 1/8 WCI  -4  
$$

NYZ052-076-170600-
EASTERN NEW YORK
  
CITY           SKY/WX    TMP DP  RH WIND       PRES   REMARKS
ALBANY         CLOUDY    34  26  72 SW12      29.32S WCI  25          
NEW YORK CITY  PTCLDY    40  24  53 W15G24    29.45R WCI  32          
$$
 
ANZALL-170600-
MARINE OBSERVATIONS
  
STATION/POSITION TIME  TEMP    WIND        PRES    VSBY  WAVE
                       AIR SEA DIR/SP/G                  HT/PER
                 (UTC) (F)     (DEG/KT/KT) (MB)    (MI)  (FT/S)
BOSTON BUOY      0440   40 43  250/ 19/ 25  989.9S
BUZZARDS BAY     0400          280/ 22/ 27  992.9R
NANTUCKET SOUND  0440      41  260/ 17/ 21   N/A
MASS BAY-STELLWA 0404   41     260/ 21/ 29  987.2F  1 7/8 10/11
ISLE OF SHOALS   0400   39     250/ 19/ 21  987.2F
S OF BLOCK IS    0426      47                N/A          11/11
$$

......................KEY.........................
  SKY/WX - SKY CONDITION/PRESENT WEATHER
  TMP    - TEMPERATURE IN FAHRENHEIT
  DWPT   - DEWPOINT IN FAHRENHEIT
  RH     - RELATIVE HUMIDITY IN PERCENT
  WIND   - DIRECTION AND SPEED IN MPH
  PRES   - MEAN SEA LEVEL PRESSURE IN INCHES OF HG
  WCI    - WIND CHILL INDEX
  VSB    - VISIBILITY IN MILES
  HX     - HEAT INDEX
  TC     - TEMPERATURE IN CELSIUS
  VRB    - VARIABLE WIND DIRECTION
  N/A    - NOT AVAILABLE
  
      

Other recent Regional Weather Roundups

Thu Jan 21, 9:04am

Thu Jan 21, 7:04am

Thu Jan 21, 6:04am

Thu Jan 21, 5:04am

Thu Jan 21, 4:04am

Thu Jan 21, 3:04am

Thu Jan 21, 2:04am

Thu Jan 21, 1:04am

Thu Jan 21, 12:04am

Wed Jan 20, 11:04pm

Wed Jan 20, 10:05pm

Wed Jan 20, 9:04pm

Wed Jan 20, 8:04pm

Wed Jan 20, 7:04pm

Wed Jan 20, 6:05pm

Wed Jan 20, 5:05pm

Wed Jan 20, 1:04pm

Wed Jan 20, 12:04pm

Wed Jan 20, 11:04am

Wed Jan 20, 10:04am

Wed Jan 20, 9:05am

Wed Jan 20, 8:04am

Wed Jan 20, 7:04am

Wed Jan 20, 6:04am

Wed Jan 20, 5:04am

Wed Jan 20, 4:04am

Wed Jan 20, 3:05am

Wed Jan 20, 2:04am

Wed Jan 20, 1:04am

Wed Jan 20, 12:04am

Tue Jan 19, 11:04pm

Tue Jan 19, 10:04pm

Tue Jan 19, 9:04pm

Tue Jan 19, 8:04pm

Tue Jan 19, 7:04pm

Tue Jan 19, 6:05pm

Tue Jan 19, 5:04pm

Tue Jan 19, 4:05pm

Tue Jan 19, 3:04pm

Tue Jan 19, 2:04pm

Tue Jan 19, 1:04pm

Tue Jan 19, 12:05pm

Tue Jan 19, 11:04am

Tue Jan 19, 10:05am

Tue Jan 19, 9:04am

Tue Jan 19, 8:04am

Tue Jan 19, 7:04am

Tue Jan 19, 6:04am

Tue Jan 19, 5:04am

Tue Jan 19, 4:04am

Tue Jan 19, 3:04am

Tue Jan 19, 2:04am

Tue Jan 19, 1:04am

Tue Jan 19, 12:04am

Mon Jan 18, 11:04pm

Mon Jan 18, 10:04pm

Mon Jan 18, 9:04pm

Mon Jan 18, 8:05pm

Mon Jan 18, 7:04pm

Mon Jan 18, 6:05pm

Mon Jan 18, 5:04pm

Mon Jan 18, 4:04pm

Mon Jan 18, 3:04pm

Mon Jan 18, 2:04pm

Mon Jan 18, 1:04pm

Mon Jan 18, 12:04pm

Mon Jan 18, 11:04am

Mon Jan 18, 10:04am

Mon Jan 18, 9:04am

Mon Jan 18, 8:04am

Mon Jan 18, 7:04am

Mon Jan 18, 6:04am

Mon Jan 18, 5:04am

Mon Jan 18, 4:04am

Mon Jan 18, 3:04am

Mon Jan 18, 2:04am

Mon Jan 18, 1:04am

Mon Jan 18, 12:04am

Sun Jan 17, 11:04pm

Sun Jan 17, 10:04pm

Sun Jan 17, 9:04pm

Sun Jan 17, 8:04pm

Sun Jan 17, 7:04pm

Sun Jan 17, 6:04pm

Sun Jan 17, 5:04pm

Sun Jan 17, 4:05pm

Sun Jan 17, 3:04pm

Sun Jan 17, 2:04pm

Sun Jan 17, 1:04pm

Sun Jan 17, 12:04pm

Sun Jan 17, 11:04am

Sun Jan 17, 10:04am

Sun Jan 17, 9:04am

Sun Jan 17, 8:04am

Sun Jan 17, 7:04am

Sun Jan 17, 6:04am

Sun Jan 17, 5:04am

Sun Jan 17, 4:04am

Sun Jan 17, 3:04am

Sun Jan 17, 2:04am

Sun Jan 17, 1:04am

Sat Jan 16, 11:05pm

Sat Jan 16, 10:04pm

Sat Jan 16, 9:04pm

Sat Jan 16, 8:05pm

Sat Jan 16, 7:04pm

Sat Jan 16, 6:04pm

Sat Jan 16, 5:05pm

Sat Jan 16, 4:05pm

Sat Jan 16, 3:05pm

Sat Jan 16, 2:04pm

Sat Jan 16, 1:04pm

Sat Jan 16, 12:04pm

Sat Jan 16, 11:04am

Sat Jan 16, 10:05am

Sat Jan 16, 9:04am

Sat Jan 16, 8:04am

Sat Jan 16, 7:04am

Sat Jan 16, 6:04am

Sat Jan 16, 5:04am

Sat Jan 16, 4:04am

Sat Jan 16, 3:05am

Sat Jan 16, 2:04am

Sat Jan 16, 1:04am

Sat Jan 16, 12:05am

Fri Jan 15, 11:05pm

Fri Jan 15, 10:04pm

Fri Jan 15, 9:04pm

Fri Jan 15, 8:04pm

Fri Jan 15, 7:05pm

Fri Jan 15, 6:05pm

Fri Jan 15, 5:05pm

Fri Jan 15, 4:05pm

Fri Jan 15, 3:04pm

Fri Jan 15, 2:05pm

Fri Jan 15, 1:04pm

Fri Jan 15, 12:05pm

Fri Jan 15, 11:04am

Fri Jan 15, 10:04am

Fri Jan 15, 9:05am

Fri Jan 15, 8:04am

Fri Jan 15, 7:04am

Fri Jan 15, 6:04am

Fri Jan 15, 5:05am

Fri Jan 15, 4:04am

Fri Jan 15, 3:04am

Fri Jan 15, 2:04am

Fri Jan 15, 1:04am

Fri Jan 15, 12:05am

Thu Jan 14, 11:04pm

Thu Jan 14, 10:04pm

Thu Jan 14, 9:04pm

Thu Jan 14, 8:05pm

Thu Jan 14, 7:04pm

Thu Jan 14, 6:04pm

Thu Jan 14, 5:04pm

Thu Jan 14, 4:05pm

Thu Jan 14, 3:04pm

Thu Jan 14, 2:04pm

Thu Jan 14, 1:04pm

Thu Jan 14, 12:05pm

Thu Jan 14, 11:05am

Thu Jan 14, 10:04am

Thu Jan 14, 9:04am

Thu Jan 14, 8:04am

Thu Jan 14, 7:04am

Thu Jan 14, 6:04am

Thu Jan 14, 5:04am

Thu Jan 14, 4:04am

Thu Jan 14, 3:04am

Thu Jan 14, 2:04am

Thu Jan 14, 1:04am

Thu Jan 14, 12:04am

Wed Jan 13, 11:04pm

Wed Jan 13, 10:04pm

Wed Jan 13, 9:04pm

Wed Jan 13, 8:05pm

Wed Jan 13, 7:04pm

Wed Jan 13, 6:04pm

Wed Jan 13, 5:04pm

Wed Jan 13, 4:04pm

Wed Jan 13, 3:05pm

Wed Jan 13, 2:04pm

Wed Jan 13, 1:04pm

Wed Jan 13, 12:04pm

Wed Jan 13, 11:04am

Wed Jan 13, 10:04am

Wed Jan 13, 9:05am

Wed Jan 13, 8:04am

Wed Jan 13, 7:04am

Wed Jan 13, 6:04am

Wed Jan 13, 5:04am

Wed Jan 13, 4:04am

Wed Jan 13, 3:04am

Wed Jan 13, 2:04am

Wed Jan 13, 1:04am

Wed Jan 13, 12:05am

Tue Jan 12, 11:04pm

Tue Jan 12, 10:04pm

Tue Jan 12, 9:04pm

Tue Jan 12, 8:05pm

Tue Jan 12, 7:04pm

Meta data:

ID: adf6dcef-6e2b-427c-af76-f9b7702d6361
Link: https://api.weather.gov/products/adf6dcef-6e2b-427c-af76-f9b7702d6361